Location: Unspecified
(50.7693°N, 0.0000°E)
Time: 20:56:24
(UTC+00:00)

Transit 2A - Pass Details

Date: 27 June 2019
Orbit: 594 x 965 km, 66.7° (Epoch: 17 July)

Event Time Altitude Azimuth Distance (km) Brightness Sun altitude
Rises 02:46:49 0° 286° (WNW) 3,634 9.3 -7.6°
Reaches altitude 10° 02:50:18 10° 304° (WNW) 2,657 8.8 -7.2°
Maximum altitude 02:54:33 19° 347° (NNW) 2,043 8.7 -6.8°
Drops below altitude 10° 02:58:37 10° 31° (NNE) 2,527 10.4 -6.4°
Sets 03:01:49 0° 49° (NE) 3,394 11.7 -6.1°
